Weather History for Sparta, WI

Change the Weather History Date:

Tuesday, February 18, 2014

  Actual Average Record
Temperature  
Mean Temperature 21 °F -  
Max Temperature 42 °F 31 °F 61 °F (1981)
Min Temperature 0 °F 14 °F -25 °F (2006)
Degree Days  
Heating Degree Days 44    
Moisture  
Dew Point 18 °F    
Average Humidity 75    
Maximum Humidity 99    
Minimum Humidity 49    
Precipitation  
Precipitation 0.10 in - - ()
Sea Level Pressure  
Sea Level Pressure 29.68 in    
Wind  
Wind Speed 2 mph (SW)    
Max Wind Speed 12 mph    
Max Gust Speed 17 mph    
Visibility 8 miles    
Events Fog    
Averages and records for this station are not official NWS values.
T = Trace of Precipitation, MM = Missing Value Source: NWS Daily Summary

Daily Weather History Graph

Daily Weather History Graph

Search for Another Location

Airport:

Trip Planner

Search our weather history database for the weather conditions in past years. The results will help you decide how hot, cold, wet, or windy it might be!

Date:

Astronomy

Feb. 18, 2014 Rise Set
Actual Time 6:57 AM CST 5:36 PM CST
Civil Twilight 6:28 AM CST 6:06 PM CST
Nautical Twilight 5:54 AM CST 6:39 PM CST
Astronomical Twilight 5:21 AM CST 7:13 PM CST
Moon 9:40 PM CST (2/18) 8:21 AM CST (2/18)
Length of Visible Light 11h 38m
Length of Day
10h 39m
Waning Gibbous, 87% of the Moon is Illuminated
Feb 18
Waning Gibbous
Feb 22
Last Quarter
Mar 1
New
Mar 8
First Quarter
Mar 16
Full

Hourly Weather History & Observations

Time (CST) Temp. Windchill Dew Point Humidity Pressure Visibility Wind Dir Wind Speed Gust Speed Precip Events Conditions
12:15 AM 23.9 °F - 20.5 °F 87% 29.82 in 7.0 mi Calm Calm - N/A   Overcast
12:35 AM 23.0 °F - 20.1 °F 89% 29.84 in 5.0 mi Calm Calm - N/A   Mostly Cloudy
12:55 AM 18.5 °F - 16.7 °F 93% 29.84 in 3.0 mi Calm Calm - N/A   Scattered Clouds
1:15 AM 16.5 °F - 16.0 °F 98% 29.84 in 1.5 mi Calm Calm - N/A   Mist
1:35 AM 12.2 °F - 10.9 °F 95% 29.85 in 0.5 mi Calm Calm - N/A Fog Light Freezing Fog
1:55 AM 12.4 °F - 10.2 °F 91% 29.85 in 0.8 mi Calm Calm - N/A   Mist
2:15 AM 10.4 °F - 8.8 °F 93% 29.85 in 1.0 mi Calm Calm - N/A   Mist
2:35 AM 8.8 °F - 7.0 °F 92% 29.84 in 3.0 mi Calm Calm - N/A   Clear
2:55 AM 9.7 °F - 7.5 °F 91% 29.82 in 3.0 mi Calm Calm - N/A   Clear
3:15 AM 7.5 °F - 4.8 °F 89% 29.81 in 2.5 mi Calm Calm - N/A   Clear
3:35 AM 7.0 °F - 5.0 °F 92% 29.80 in 4.0 mi Calm Calm - N/A   Clear
3:55 AM 3.9 °F - 1.4 °F 89% 29.79 in 4.0 mi Calm Calm - N/A   Clear
4:15 AM 3.6 °F - 0.1 °F 86% 29.77 in 4.0 mi Calm Calm - N/A   Clear
4:35 AM 4.3 °F - 1.2 °F 87% 29.78 in 5.0 mi Calm Calm - N/A   Clear
4:55 AM 2.1 °F - -1.3 °F 86% 29.77 in 0.5 mi Calm Calm - N/A Fog Light Freezing Fog
5:15 AM 4.1 °F - 1.2 °F 88% 29.76 in 4.0 mi Calm Calm - N/A   Clear
5:35 AM 2.3 °F - -0.8 °F 87% 29.75 in 5.0 mi Calm Calm - N/A   Clear
5:55 AM 1.9 °F - -1.5 °F 86% 29.74 in 5.0 mi Calm Calm - N/A   Clear
6:15 AM 1.2 °F - -2.2 °F 86% 29.73 in 5.0 mi Calm Calm - N/A   Clear
6:35 AM 1.0 °F - -2.6 °F 85% 29.72 in 5.0 mi Calm Calm - N/A   Clear
6:55 AM 0.5 °F - -3.1 °F 85% 29.71 in 5.0 mi Calm Calm - N/A   Clear
7:15 AM 1.2 °F - -2.2 °F 86% 29.70 in 4.0 mi Calm Calm - N/A   Clear
7:35 AM 2.1 °F - -1.3 °F 86% 29.69 in 4.0 mi Calm Calm - N/A   Clear
7:55 AM 4.1 °F - 1.4 °F 89% 29.69 in 4.0 mi Calm Calm - N/A   Clear
8:15 AM 5.9 °F - 3.4 °F 89% 29.67 in 4.0 mi Calm Calm - N/A   Clear
8:35 AM 10.0 °F - 8.8 °F 95% 29.66 in 3.0 mi Calm Calm - N/A   Clear
8:55 AM 17.2 °F - 17.1 °F 99% 29.66 in 4.0 mi Calm Calm - N/A   Clear
9:15 AM 22.1 °F 12.8 °F 21.9 °F 99% 29.65 in 4.0 mi South 8.1 mph - N/A   Clear
9:35 AM 31.5 °F 23.5 °F 25.2 °F 78% 29.64 in 10.0 mi South 9.2 mph 17.3 mph N/A   Clear
9:55 AM 33.3 °F 27.9 °F 22.8 °F 66% 29.63 in 10.0 mi SSE 5.8 mph - N/A   Clear
10:15 AM 34.5 °F 27.9 °F 23.0 °F 63% 29.63 in 10.0 mi South 8.1 mph - N/A   Clear
10:35 AM 36.5 °F 31.8 °F 23.5 °F 59% 29.64 in 10.0 mi SSW 5.8 mph - 0.01 in   Clear
10:55 AM 36.5 °F 30.3 °F 23.5 °F 59% 29.63 in 10.0 mi South 8.1 mph - 0.03 in   Clear
11:15 AM 38.3 °F 31.9 °F 23.7 °F 56% 29.62 in 10.0 mi South 9.2 mph - N/A   Clear
11:35 AM 39.4 °F 32.3 °F 24.1 °F 54% 29.60 in 10.0 mi South 11.5 mph - 0.02 in   Clear
11:50 AM 39.0 °F 34.0 °F 23.9 °F 55% 29.60 in 10.0 mi SSW 6.9 mph - 0.06 in   Clear
12:10 PM 39.7 °F 35.6 °F 24.1 °F 54% 29.60 in 10.0 mi SSW 5.8 mph - 0.01 in   Clear
12:35 PM 41.2 °F 37.3 °F 24.4 °F 51% 29.57 in 10.0 mi South 5.8 mph - 0.01 in   Clear
12:55 PM 41.2 °F 37.3 °F 24.4 °F 51% 29.56 in 10.0 mi South 5.8 mph - 0.01 in   Clear
1:15 PM 42.1 °F 37.1 °F 24.6 °F 50% 29.55 in 10.0 mi South 8.1 mph 16.1 mph N/A   Clear
1:30 PM 42.1 °F 40.2 °F 25.0 °F 51% 29.56 in 10.0 mi South 3.5 mph - N/A   Clear
2:15 PM 41.5 °F 37.8 °F 26.2 °F 55% 29.57 in 10.0 mi WNW 5.8 mph - N/A   Clear
2:35 PM 42.8 °F 39.3 °F 25.0 °F 49% 29.57 in 10.0 mi West 5.8 mph - N/A   Clear
2:55 PM 42.6 °F 39.0 °F 25.3 °F 51% 29.56 in 10.0 mi West 5.8 mph - N/A   Clear
3:15 PM 42.3 °F 38.6 °F 25.5 °F 52% 29.57 in 10.0 mi West 5.8 mph - N/A   Clear
3:35 PM 42.3 °F 38.6 °F 25.3 °F 51% 29.57 in 10.0 mi West 5.8 mph - N/A   Clear
3:55 PM 42.8 °F 40.1 °F 25.2 °F 50% 29.56 in 10.0 mi West 4.6 mph - N/A   Clear
4:15 PM 42.4 °F 39.6 °F 25.5 °F 51% 29.56 in 10.0 mi West 4.6 mph - N/A   Clear
4:35 PM 40.8 °F 38.8 °F 26.2 °F 56% 29.56 in 10.0 mi WNW 3.5 mph - N/A   Clear
4:55 PM 41.0 °F 39.0 °F 26.2 °F 56% 29.57 in 10.0 mi WNW 3.5 mph - N/A   Clear
5:15 PM 40.1 °F 38.0 °F 26.2 °F 58% 29.58 in 10.0 mi West 3.5 mph - N/A   Clear
5:35 PM 38.5 °F 36.1 °F 25.9 °F 61% 29.60 in 10.0 mi West 3.5 mph - N/A   Clear
5:55 PM 37.6 °F - 25.7 °F 62% 29.60 in 10.0 mi Calm Calm - N/A   Clear
6:15 PM 32.9 °F 29.8 °F 25.0 °F 73% 29.61 in 10.0 mi WSW 3.5 mph - N/A   Clear
6:35 PM 32.5 °F - 24.6 °F 73% 29.61 in 10.0 mi Calm Calm - N/A   Clear
6:55 PM 31.5 °F - 22.8 °F 70% 29.62 in 10.0 mi Calm Calm - N/A   Clear
7:15 PM 26.6 °F 20.0 °F 23.4 °F 88% 29.60 in 10.0 mi ESE 5.8 mph - N/A   Clear
7:35 PM 28.6 °F - 24.3 °F 84% 29.64 in 10.0 mi Calm Calm - N/A   Clear
7:55 PM 27.1 °F 21.8 °F 23.5 °F 86% 29.65 in 10.0 mi West 4.6 mph - N/A   Clear
8:15 PM 30.2 °F - 23.7 °F 77% 29.65 in 10.0 mi Calm Calm - N/A   Scattered Clouds
8:35 PM 26.1 °F - 23.0 °F 88% 29.66 in 10.0 mi Calm Calm - N/A   Mostly Cloudy
8:55 PM 27.7 °F 23.8 °F 24.3 °F 87% 29.67 in 10.0 mi SW 3.5 mph - N/A   Overcast
9:15 PM 29.7 °F 26.1 °F 26.1 °F 86% 29.67 in 10.0 mi SSW 3.5 mph - N/A   Overcast
9:35 PM 34.3 °F 31.4 °F 26.4 °F 73% 29.67 in 10.0 mi SSW 3.5 mph - N/A   Overcast
9:55 PM 34.5 °F 30.4 °F 26.6 °F 73% 29.68 in 10.0 mi WSW 4.6 mph - N/A   Overcast
10:15 PM 35.2 °F 32.4 °F 26.6 °F 71% 29.68 in 10.0 mi SW 3.5 mph - N/A   Overcast
10:35 PM 35.2 °F 32.4 °F 27.0 °F 72% 29.69 in 10.0 mi WSW 3.5 mph - N/A   Overcast
10:55 PM 35.6 °F 31.7 °F 27.1 °F 71% 29.69 in 10.0 mi SSW 4.6 mph - N/A   Overcast
11:15 PM 35.1 °F 32.2 °F 27.1 °F 73% 29.70 in 10.0 mi SW 3.5 mph - N/A   Overcast
11:35 PM 35.1 °F - 27.1 °F 73% 29.70 in 10.0 mi Calm Calm - N/A   Overcast
11:55 PM 34.3 °F - 26.6 °F 73% 29.70 in 10.0 mi Calm Calm - N/A   Scattered Clouds